Regional Weather Roundup
Issued by NWS Portland, ME

Current Version | Previous Version | Text Only | Print | Product List | Glossary Off
Versions: 1 2 3 4 5 6 7 8 9 10 11 12 13 14 15 16 17 18 19 20 21 22 23 24 25 26 27 28 29 30 31 32 33 34 35 36 37 38 39 40 41 42 43 44 45 46 47 48 49
000 ASUS41 KGYX 231005 RWRGYX WEATHER ROUNDUP FOR MAINE AND NEW HAMPSHIRE NATIONAL WEATHER SERVICE GRAY ME 600 AM EDT THU MAR 23 2017 MEZ002-005-006-010-012-015-018-020-021-024-026-027-029-231100- MAINE CITY SKY/WX TMP DP RH WIND PRES REMARKS PORTLAND CLEAR 14 -5 42 N7 30.35R SANFORD CLEAR 13 -4 46 NW8 30.36R BAR HARBOR CLEAR 9 -6 50 NW9 30.24 WISCASSET CLEAR 14 -6 40 VRB6 30.33R ROCKLAND CLEAR 12 -5 46 NW7G16 30.29R FRYEBURG CLEAR 10 -9 42 CALM 30.33R LEWISTONAUBURN CLEAR 13 -4 46 NW15G24 30.32R WCI -3 AUGUSTA CLEAR 10 -9 42 NW8 30.30R WATERVILLE CLEAR 8 -6 52 NW9 30.27R BANGOR PTCLDY 10 -7 46 NW15G23 30.26R WCI -7 GREENVILLE N/A 2 -8 63 NW14G25 30.13R WCI -16 MILLINOCKET CLEAR 7 -6 55 NW9 30.23R HOULTON PTCLDY 5 -8 55 NW14G23 30.16R WCI -12 PRESQUE ISLE PTCLDY 4 -8 57 NW9 30.19R FRENCHVILLE CLEAR 1 -11 57 NW20G28 30.11R WCI -20 CARIBOU PTCLDY 3 -9 57 NW9G20 30.16R $$ NHZ002-005-008-009-011-012-014-231100- NEW HAMPSHIRE CITY SKY/WX TMP DP RH WIND PRES REMARKS PORTSMOUTH CLEAR 15 -6 38 NW8 30.37R ROCHESTER CLEAR 14 -6 40 NW7 30.33R NASHUA CLEAR 17 -3 41 NW16 30.41R WCI 2 MANCHESTER CLEAR 16 -6 37 NW14 30.38R WCI 2 CONCORD CLEAR 15 -4 42 NW16 30.38R WCI -1 LACONIA CLEAR 13 -5 44 NW8 30.36R PLYMOUTH FAIR 13 -4 45 NW6 30.38R BERLIN CLEAR 9 -8 46 NW5 30.30R WHITEFIELD CLEAR 2 -9 60 CALM 30.35R JAFFREY CLEAR 12 -7 42 CALM 30.35R KEENE CLEAR 15 -3 44 N9 30.42R LEBANON CLEAR 14 -4 44 NW8 30.41R MT WASHINGTON ICE FOG -17 -17 100 NW72 N/A VSB 1/8 WCI -60 $$ VTZ005-007-008-231100- VERMONT CITY SKY/WX TMP DP RH WIND PRES REMARKS ST JOHNSBURY N/A 4 -2 76 MISG 30.38R MONTPELIER CLEAR 8 -6 52 CALM 30.41R BURLINGTON CLEAR 4 -1 80 CALM 30.47R $$ MAZ007-012-024-CTZ003-RIZ002-NYZ038-NYZ072-231100- SOUTHERN NEW ENGLAND AND NY CITY SKY/WX TMP DP RH WIND PRES REMARKS BOSTON CLEAR 19 -4 36 NW10 30.42R WCI 7 WORCESTER CLEAR 14 -9 35 NW14G23 30.34R WCI -1 NANTUCKET CLEAR 20 3 48 NW22G29 30.38R WCI 3 PROVIDENCE CLEAR 19 -6 33 NW9G17 30.44R HARTFORD CLEAR 17 -5 37 NW6 30.46R ALBANY CLEAR 14 0 53 NW7 30.52R NEW YORK CITY CLEAR 26 7 44 NW13 30.52R WCI 15 $$ ANZ081-ANZ082-ANZ150-NHZ014-MEZ023>029-231100- COASTAL MARINE OBSERVATIONS STATION/POSITION TIME TEMP WIND PRES WAVE AIR SEA DIR/SP/G HT/PER (UTC) (F) (DEG/KT/KT) (MB) (FT/S) MOUNT DESERT ROC 1000 16 1022.6R MATINICUS ROCK 0900 16 340/ 32/ 34 1023.3R ISLE OF SHOALS 0900 18 310/ 20/ 23 1027.4R JEFFREYS LEDGE 0936 41 N/A 7/ 6 CASHES LEDGE BUO 0850 20 38 1024.4 10/ 7 GEORGES BANK BUO 0850 26 40 1019.9 16/11 $$ .............KEY.............. WCI - WIND CHILL TC - TEMPERATURE IN CELSIUS VSB - VISIBILITY IN MILES HX - HEAT INDEX FAIR- INDICATES FEW OR NO CLOUDS BELOW 12,000 FT, WITH NO SIGNIFICANT WEATHER AND/OR OBSTRUCTIONS TO VISIBILITY.

USA.gov is the U.S. government's official web portal to all federal, state and local government web resources and services.